TimeCDT,TemperatureF,Dew PointF,Humidity,Sea Level PressureIn,VisibilityMPH,Wind Direction,Wind SpeedMPH,Gust SpeedMPH,PrecipitationIn,Events,Conditions,WindDirDegrees,DateUTC
12:53 AM,78.1,73.0,84,29.99,10.0,South,5.8,-,N/A,,Clear,180,2012-09-02 05:53:00
1:53 AM,78.1,72.0,81,29.99,10.0,South,9.2,-,N/A,,Clear,190,2012-09-02 06:53:00
2:53 AM,78.8,71.6,78,30.01,10.0,SSW,10.4,-,N/A,,Clear,200,2012-09-02 07:53:00
3:53 AM,78.1,72.0,81,29.99,10.0,SSW,10.4,-,N/A,,Clear,200,2012-09-02 08:53:00
4:53 AM,78.1,73.0,84,29.99,10.0,SSW,9.2,-,N/A,,Clear,200,2012-09-02 09:53:00
5:53 AM,77.0,73.0,88,29.99,10.0,SSW,6.9,-,N/A,,Clear,200,2012-09-02 10:53:00
6:53 AM,77.0,73.0,88,30.01,10.0,SSW,6.9,-,N/A,,Clear,210,2012-09-02 11:53:00
7:53 AM,78.1,73.9,87,30.03,10.0,SSW,11.5,-,N/A,,Scattered Clouds,210,2012-09-02 12:53:00
8:53 AM,80.1,73.9,81,30.03,10.0,SSW,11.5,-,N/A,,Scattered Clouds,210,2012-09-02 13:53:00
9:53 AM,82.9,73.0,72,30.04,10.0,SW,12.7,20.7,N/A,,Partly Cloudy,230,2012-09-02 14:53:00
10:53 AM,86.0,73.0,65,30.04,10.0,WSW,9.2,-,N/A,,Partly Cloudy,250,2012-09-02 15:53:00
11:53 AM,89.1,72.0,57,30.03,10.0,WSW,9.2,-,N/A,,Partly Cloudy,250,2012-09-02 16:53:00
12:53 PM,91.9,71.1,50,30.01,10.0,SW,9.2,17.3,N/A,,Partly Cloudy,230,2012-09-02 17:53:00
1:53 PM,93.0,70.0,47,29.99,10.0,WSW,8.1,16.1,N/A,,Clear,250,2012-09-02 18:53:00
2:53 PM,93.9,69.1,44,29.96,10.0,Variable,4.6,-,N/A,,Clear,0,2012-09-02 19:53:00
3:53 PM,96.1,69.1,41,29.94,10.0,SSW,8.1,-,N/A,,Partly Cloudy,200,2012-09-02 20:53:00
4:53 PM,96.1,66.9,38,29.92,10.0,SSW,10.4,-,N/A,,Partly Cloudy,210,2012-09-02 21:53:00
5:53 PM,96.1,66.9,38,29.91,10.0,SSW,8.1,-,N/A,,Clear,210,2012-09-02 22:53:00
6:53 PM,93.9,68.0,43,29.90,10.0,South,5.8,-,N/A,,Clear,190,2012-09-02 23:53:00
7:53 PM,89.1,70.0,53,29.90,10.0,South,4.6,-,N/A,,Clear,170,2012-09-03 00:53:00
8:53 PM,86.0,70.0,59,29.91,10.0,South,3.5,-,N/A,,Clear,170,2012-09-03 01:53:00
9:53 PM,84.0,70.0,63,29.92,10.0,South,4.6,-,N/A,,Clear,170,2012-09-03 02:53:00
10:53 PM,82.9,70.0,65,29.93,10.0,South,6.9,-,N/A,,Clear,180,2012-09-03 03:53:00
11:53 PM,82.9,69.1,63,29.93,10.0,South,8.1,-,N/A,,Clear,190,2012-09-03 04:53:00